Year,Month,Day,Hour,Minute,Value (Times are PST for insolation in W/m^2)
2008,04,19,00,00,0.00
2008,04,19,00,01,0.00
2008,04,19,00,02,0.00
2008,04,19,00,03,0.00
2008,04,19,00,04,0.00
2008,04,19,00,05,0.00
2008,04,19,00,06,0.00
2008,04,19,00,07,0.00
2008,04,19,00,08,0.00
2008,04,19,00,09,0.00
2008,04,19,00,10,0.00
2008,04,19,00,11,0.00
2008,04,19,00,12,0.00
2008,04,19,00,13,0.00
2008,04,19,00,14,0.00
2008,04,19,00,15,0.00
2008,04,19,00,16,0.00
2008,04,19,00,17,0.00
2008,04,19,00,18,0.00
2008,04,19,00,19,0.00
2008,04,19,00,20,0.00
2008,04,19,00,21,0.00
2008,04,19,00,22,0.00
2008,04,19,00,23,0.00
2008,04,19,00,24,0.00
2008,04,19,00,25,0.00
2008,04,19,00,26,0.00
2008,04,19,00,27,0.00
2008,04,19,00,28,0.00
2008,04,19,00,29,0.00
2008,04,19,00,30,0.00
2008,04,19,00,31,0.00
2008,04,19,00,32,0.00
2008,04,19,00,33,0.00
2008,04,19,00,34,0.00
2008,04,19,00,35,0.00
2008,04,19,00,36,0.00
2008,04,19,00,37,0.00
2008,04,19,00,38,0.00
2008,04,19,00,39,0.00
2008,04,19,00,40,0.00
2008,04,19,00,41,0.00
2008,04,19,00,42,0.00
2008,04,19,00,43,0.00
2008,04,19,00,44,0.00
2008,04,19,00,45,0.00
2008,04,19,00,46,0.00
2008,04,19,00,47,0.00
2008,04,19,00,48,0.00
2008,04,19,00,49,0.00
2008,04,19,00,50,0.00
2008,04,19,00,51,0.00
2008,04,19,00,52,0.00
2008,04,19,00,53,0.00
2008,04,19,00,54,0.00
2008,04,19,00,55,0.00
2008,04,19,00,56,0.00
2008,04,19,00,57,0.00
2008,04,19,00,58,0.00
2008,04,19,00,59,0.00
2008,04,19,01,00,0.00
2008,04,19,01,01,0.00
2008,04,19,01,02,0.00
2008,04,19,01,03,0.00
2008,04,19,01,04,0.00
2008,04,19,01,05,0.00
2008,04,19,01,06,0.00
2008,04,19,01,07,0.00
2008,04,19,01,08,0.00
2008,04,19,01,09,0.00
2008,04,19,01,10,0.00
2008,04,19,01,11,0.00
2008,04,19,01,12,0.00
2008,04,19,01,13,0.00
2008,04,19,01,14,0.00
2008,04,19,01,15,0.00
2008,04,19,01,16,0.00
2008,04,19,01,17,0.00
2008,04,19,01,18,0.00
2008,04,19,01,19,0.00
2008,04,19,01,20,0.00
2008,04,19,01,21,0.00
2008,04,19,01,22,0.00
2008,04,19,01,23,0.00
2008,04,19,01,24,0.00
2008,04,19,01,25,0.00
2008,04,19,01,26,0.00
2008,04,19,01,27,0.00
2008,04,19,01,28,0.00
2008,04,19,01,29,0.00
2008,04,19,01,30,0.00
2008,04,19,01,31,0.00
2008,04,19,01,32,0.00
2008,04,19,01,33,0.00
2008,04,19,01,34,0.00
2008,04,19,01,35,0.00
2008,04,19,01,36,0.00
2008,04,19,01,37,0.00
2008,04,19,01,38,0.00
2008,04,19,01,39,0.00
2008,04,19,01,40,0.00
2008,04,19,01,41,0.00
2008,04,19,01,42,0.00
2008,04,19,01,43,0.00
2008,04,19,01,44,0.00
2008,04,19,01,45,0.00
2008,04,19,01,46,0.00
2008,04,19,01,47,0.00
2008,04,19,01,48,0.00
2008,04,19,01,49,0.00
2008,04,19,01,50,0.00
2008,04,19,01,51,0.00
2008,04,19,01,52,0.00
2008,04,19,01,53,0.00
2008,04,19,01,54,0.00
2008,04,19,01,55,0.00
2008,04,19,01,56,0.00
2008,04,19,01,57,0.00
2008,04,19,01,58,0.00
2008,04,19,01,59,0.00
2008,04,19,02,00,0.00
2008,04,19,02,01,0.00
2008,04,19,02,02,0.00
2008,04,19,02,03,0.00
2008,04,19,02,04,0.00
2008,04,19,02,05,0.00
2008,04,19,02,06,0.00
2008,04,19,02,07,0.00
2008,04,19,02,08,0.00
2008,04,19,02,09,0.00
2008,04,19,02,10,0.00
2008,04,19,02,11,0.00
2008,04,19,02,12,0.00
2008,04,19,02,13,0.00
2008,04,19,02,14,0.00
2008,04,19,02,15,0.00
2008,04,19,02,16,0.00
2008,04,19,02,17,0.00
2008,04,19,02,18,0.00
2008,04,19,02,19,0.00
2008,04,19,02,20,0.00
2008,04,19,02,21,0.00
2008,04,19,02,22,0.00
2008,04,19,02,23,0.00
2008,04,19,02,24,0.00
2008,04,19,02,25,0.00
2008,04,19,02,26,0.00
2008,04,19,02,27,0.00
2008,04,19,02,28,0.00
2008,04,19,02,29,0.00
2008,04,19,02,30,0.00
2008,04,19,02,31,0.00
2008,04,19,02,32,0.00
2008,04,19,02,33,0.00
2008,04,19,02,34,0.00
2008,04,19,02,35,0.00
2008,04,19,02,36,0.00
2008,04,19,02,37,0.00
2008,04,19,02,38,0.00
2008,04,19,02,39,0.00
2008,04,19,02,40,0.00
2008,04,19,02,41,0.00
2008,04,19,02,42,0.00
2008,04,19,02,43,0.00
2008,04,19,02,44,0.00
2008,04,19,02,45,0.00
2008,04,19,02,46,0.00
2008,04,19,02,47,0.00
2008,04,19,02,48,0.00
2008,04,19,02,49,0.00
2008,04,19,02,50,0.00
2008,04,19,02,51,0.00
2008,04,19,02,52,0.00
2008,04,19,02,53,0.00
2008,04,19,02,54,0.00
2008,04,19,02,55,0.00
2008,04,19,02,56,0.00
2008,04,19,02,57,0.00
2008,04,19,02,58,0.00
2008,04,19,02,59,0.00
2008,04,19,03,00,0.00
2008,04,19,03,01,0.00
2008,04,19,03,02,0.00
2008,04,19,03,03,0.00
2008,04,19,03,04,0.00
2008,04,19,03,05,0.00
2008,04,19,03,06,0.00
2008,04,19,03,07,0.00
2008,04,19,03,08,0.00
2008,04,19,03,09,0.00
2008,04,19,03,10,0.00
2008,04,19,03,11,0.00
2008,04,19,03,12,0.00
2008,04,19,03,13,0.00
2008,04,19,03,14,0.00
2008,04,19,03,15,0.00
2008,04,19,03,16,0.00
2008,04,19,03,17,0.00
2008,04,19,03,18,0.00
2008,04,19,03,19,0.00
2008,04,19,03,20,0.00
2008,04,19,03,21,0.00
2008,04,19,03,22,0.00
2008,04,19,03,23,0.00
2008,04,19,03,24,0.00
2008,04,19,03,25,0.00
2008,04,19,03,26,0.00
2008,04,19,03,27,0.00
2008,04,19,03,28,0.00
2008,04,19,03,29,0.00
2008,04,19,03,30,0.00
2008,04,19,03,31,0.00
2008,04,19,03,32,0.00
2008,04,19,03,33,0.00
2008,04,19,03,34,0.00
2008,04,19,03,35,0.00
2008,04,19,03,36,0.00
2008,04,19,03,37,0.00
2008,04,19,03,38,0.00
2008,04,19,03,39,0.00
2008,04,19,03,40,0.00
2008,04,19,03,41,0.00
2008,04,19,03,42,0.00
2008,04,19,03,43,0.00
2008,04,19,03,44,0.00
2008,04,19,03,45,0.00
2008,04,19,03,46,0.00
2008,04,19,03,47,0.00
2008,04,19,03,48,0.00
2008,04,19,03,49,0.00
2008,04,19,03,50,0.00
2008,04,19,03,51,0.00
2008,04,19,03,52,0.00
2008,04,19,03,53,0.00
2008,04,19,03,54,0.00
2008,04,19,03,55,0.00
2008,04,19,03,56,0.00
2008,04,19,03,57,0.00
2008,04,19,03,58,0.00
2008,04,19,03,59,0.00
2008,04,19,04,00,0.00
2008,04,19,04,01,0.00
2008,04,19,04,02,0.00
2008,04,19,04,03,0.00
2008,04,19,04,04,0.00
2008,04,19,04,05,0.00
2008,04,19,04,06,0.00
2008,04,19,04,07,0.00
2008,04,19,04,08,0.00
2008,04,19,04,09,0.00
2008,04,19,04,10,0.00
2008,04,19,04,11,0.00
2008,04,19,04,12,0.00
2008,04,19,04,13,0.00
2008,04,19,04,14,0.00
2008,04,19,04,15,0.00
2008,04,19,04,16,0.00
2008,04,19,04,17,0.00
2008,04,19,04,18,0.00
2008,04,19,04,19,0.00
2008,04,19,04,20,0.00
2008,04,19,04,21,0.00
2008,04,19,04,22,0.00
2008,04,19,04,23,0.00
2008,04,19,04,24,0.00
2008,04,19,04,25,0.00
2008,04,19,04,26,0.00
2008,04,19,04,27,0.00
2008,04,19,04,28,0.00
2008,04,19,04,29,0.00
2008,04,19,04,30,0.00
2008,04,19,04,31,0.00
2008,04,19,04,32,0.00
2008,04,19,04,33,0.00
2008,04,19,04,34,0.00
2008,04,19,04,35,0.00
2008,04,19,04,36,0.00
2008,04,19,04,37,0.00
2008,04,19,04,38,0.00
2008,04,19,04,39,0.00
2008,04,19,04,40,0.00
2008,04,19,04,41,0.00
2008,04,19,04,42,0.00
2008,04,19,04,43,0.00
2008,04,19,04,44,0.00
2008,04,19,04,45,0.00
2008,04,19,04,46,0.00
2008,04,19,04,47,0.00
2008,04,19,04,48,0.00
2008,04,19,04,49,0.00
2008,04,19,04,50,0.00
2008,04,19,04,51,0.00
2008,04,19,04,52,0.00
2008,04,19,04,53,0.00
2008,04,19,04,54,0.00
2008,04,19,04,55,0.00
2008,04,19,04,56,0.00
2008,04,19,04,57,0.00
2008,04,19,04,58,0.00
2008,04,19,04,59,0.00
2008,04,19,05,00,0.00
2008,04,19,05,01,0.00
2008,04,19,05,02,0.00
2008,04,19,05,03,0.00
2008,04,19,05,04,0.00
2008,04,19,05,05,0.00
2008,04,19,05,06,0.00
2008,04,19,05,07,0.00
2008,04,19,05,08,0.00
2008,04,19,05,09,0.00
2008,04,19,05,10,0.00
2008,04,19,05,11,0.00
2008,04,19,05,12,0.00
2008,04,19,05,13,0.00
2008,04,19,05,14,0.00
2008,04,19,05,15,0.00
2008,04,19,05,16,0.00
2008,04,19,05,17,0.00
2008,04,19,05,18,0.00
2008,04,19,05,19,0.00
2008,04,19,05,20,0.00
2008,04,19,05,21,0.00
2008,04,19,05,22,0.00
2008,04,19,05,23,0.00
2008,04,19,05,24,0.00
2008,04,19,05,25,0.00
2008,04,19,05,26,0.00
2008,04,19,05,27,0.00
2008,04,19,05,28,0.00
2008,04,19,05,29,0.00
2008,04,19,05,30,0.00
2008,04,19,05,31,0.00
2008,04,19,05,32,0.00
2008,04,19,05,33,0.00
2008,04,19,05,34,0.00
2008,04,19,05,35,0.00
2008,04,19,05,36,0.00
2008,04,19,05,37,0.00
2008,04,19,05,38,0.00
2008,04,19,05,39,0.00
2008,04,19,05,40,0.00
2008,04,19,05,41,0.00
2008,04,19,05,42,0.00
2008,04,19,05,43,0.00
2008,04,19,05,44,0.00
2008,04,19,05,45,0.00
2008,04,19,05,46,0.00
2008,04,19,05,47,0.00
2008,04,19,05,48,0.00
2008,04,19,05,49,0.00
2008,04,19,05,50,0.00
2008,04,19,05,51,0.00
2008,04,19,05,52,0.00
2008,04,19,05,53,0.00
2008,04,19,05,54,0.00
2008,04,19,05,55,0.00
2008,04,19,05,56,0.00
2008,04,19,05,57,0.00
2008,04,19,05,58,0.00
2008,04,19,05,59,0.00
2008,04,19,06,00,0.00
2008,04,19,06,01,0.00
2008,04,19,06,02,0.00
2008,04,19,06,03,0.00
2008,04,19,06,04,0.00
2008,04,19,06,05,0.00
2008,04,19,06,06,0.00
2008,04,19,06,07,0.00
2008,04,19,06,08,0.00
2008,04,19,06,09,0.00
2008,04,19,06,10,0.00
2008,04,19,06,11,0.00
2008,04,19,06,12,0.00
2008,04,19,06,13,0.00
2008,04,19,06,14,0.00
2008,04,19,06,15,0.00
2008,04,19,06,16,0.00
2008,04,19,06,17,0.00
2008,04,19,06,18,0.00
2008,04,19,06,19,0.00
2008,04,19,06,20,0.00
2008,04,19,06,21,0.00
2008,04,19,06,22,0.00
2008,04,19,06,23,0.00
2008,04,19,06,24,0.00
2008,04,19,06,25,0.00
2008,04,19,06,26,0.00
2008,04,19,06,27,0.00
2008,04,19,06,28,0.00
2008,04,19,06,29,0.20
2008,04,19,06,30,5.00
2008,04,19,06,31,5.00
2008,04,19,06,32,5.00
2008,04,19,06,33,5.00
2008,04,19,06,34,5.00
2008,04,19,06,35,5.00
2008,04,19,06,36,5.00
2008,04,19,06,37,5.00
2008,04,19,06,38,5.00
2008,04,19,06,39,6.40
2008,04,19,06,40,7.00
2008,04,19,06,41,7.00
2008,04,19,06,42,7.00
2008,04,19,06,43,7.00
2008,04,19,06,44,7.00
2008,04,19,06,45,7.00
2008,04,19,06,46,7.00
2008,04,19,06,47,7.00
2008,04,19,06,48,7.00
2008,04,19,06,49,7.00
2008,04,19,06,50,8.20
2008,04,19,06,51,9.00
2008,04,19,06,52,9.00
2008,04,19,06,53,9.00
2008,04,19,06,54,9.60
2008,04,19,06,55,11.00
2008,04,19,06,56,11.00
2008,04,19,06,57,11.00
2008,04,19,06,58,11.00
2008,04,19,06,59,12.00
2008,04,19,07,00,12.00
2008,04,19,07,01,13.00
2008,04,19,07,02,14.00
2008,04,19,07,03,14.00
2008,04,19,07,04,14.10
2008,04,19,07,05,16.00
2008,04,19,07,06,16.60
2008,04,19,07,07,18.00
2008,04,19,07,08,18.70
2008,04,19,07,09,19.00
2008,04,19,07,10,19.10
2008,04,19,07,11,21.00
2008,04,19,07,12,21.00
2008,04,19,07,13,21.00
2008,04,19,07,14,21.00
2008,04,19,07,15,22.50
2008,04,19,07,16,23.10
2008,04,19,07,17,25.20
2008,04,19,07,18,26.00
2008,04,19,07,19,25.40
2008,04,19,07,20,25.00
2008,04,19,07,21,25.00
2008,04,19,07,22,25.10
2008,04,19,07,23,26.00
2008,04,19,07,24,26.00
2008,04,19,07,25,26.00
2008,04,19,07,26,26.00
2008,04,19,07,27,26.00
2008,04,19,07,28,26.00
2008,04,19,07,29,26.00
2008,04,19,07,30,26.00
2008,04,19,07,31,26.00
2008,04,19,07,32,26.00
2008,04,19,07,33,29.80
2008,04,19,07,34,30.30
2008,04,19,07,35,32.00
2008,04,19,07,36,32.00
2008,04,19,07,37,32.00
2008,04,19,07,38,30.40
2008,04,19,07,39,28.10
2008,04,19,07,40,28.00
2008,04,19,07,41,28.70
2008,04,19,07,42,30.00
2008,04,19,07,43,30.00
2008,04,19,07,44,30.00
2008,04,19,07,45,28.00
2008,04,19,07,46,26.00
2008,04,19,07,47,26.00
2008,04,19,07,48,26.00
2008,04,19,07,49,25.40
2008,04,19,07,50,25.00
2008,04,19,07,51,26.00
2008,04,19,07,52,26.40
2008,04,19,07,53,28.80
2008,04,19,07,54,30.00
2008,04,19,07,55,31.40
2008,04,19,07,56,32.00
2008,04,19,07,57,32.10
2008,04,19,07,58,33.00
2008,04,19,07,59,33.00
2008,04,19,08,00,33.00
2008,04,19,08,01,33.00
2008,04,19,08,02,33.00
2008,04,19,08,03,34.80
2008,04,19,08,04,35.00
2008,04,19,08,05,35.00
2008,04,19,08,06,36.20
2008,04,19,08,07,38.30
2008,04,19,08,08,39.90
2008,04,19,08,09,42.40
2008,04,19,08,10,46.30
2008,04,19,08,11,47.90
2008,04,19,08,12,51.40
2008,04,19,08,13,56.20
2008,04,19,08,14,61.80
2008,04,19,08,15,63.30
2008,04,19,08,16,65.70
2008,04,19,08,17,67.00
2008,04,19,08,18,67.00
2008,04,19,08,19,67.00
2008,04,19,08,20,68.90
2008,04,19,08,21,73.80
2008,04,19,08,22,74.00
2008,04,19,08,23,84.30
2008,04,19,08,24,102.70
2008,04,19,08,25,109.90
2008,04,19,08,26,112.70
2008,04,19,08,27,115.30
2008,04,19,08,28,110.00
2008,04,19,08,29,104.00
2008,04,19,08,30,108.00
2008,04,19,08,31,109.40
2008,04,19,08,32,104.10
2008,04,19,08,33,106.30
2008,04,19,08,34,112.00
2008,04,19,08,35,118.10
2008,04,19,08,36,131.50
2008,04,19,08,37,152.20
2008,04,19,08,38,248.20
2008,04,19,08,39,171.30
2008,04,19,08,40,178.90
2008,04,19,08,41,187.50
2008,04,19,08,42,166.70
2008,04,19,08,43,164.20
2008,04,19,08,44,149.40
2008,04,19,08,45,137.00
2008,04,19,08,46,154.10
2008,04,19,08,47,189.90
2008,04,19,08,48,210.70
2008,04,19,08,49,234.70
2008,04,19,08,50,253.80
2008,04,19,08,51,256.70
2008,04,19,08,52,241.90
2008,04,19,08,53,223.80
2008,04,19,08,54,194.20
2008,04,19,08,55,164.50
2008,04,19,08,56,133.40
2008,04,19,08,57,113.00
2008,04,19,08,58,113.00
2008,04,19,08,59,102.60
2008,04,19,09,00,97.00
2008,04,19,09,01,101.70
2008,04,19,09,02,106.70
2008,04,19,09,03,102.30
2008,04,19,09,04,97.00
2008,04,19,09,05,91.00
2008,04,19,09,06,92.10
2008,04,19,09,07,104.00
2008,04,19,09,08,106.70
2008,04,19,09,09,108.20
2008,04,19,09,10,117.20
2008,04,19,09,11,116.10
2008,04,19,09,12,103.50
2008,04,19,09,13,95.20
2008,04,19,09,14,88.70
2008,04,19,09,15,82.80
2008,04,19,09,16,78.80
2008,04,19,09,17,83.40
2008,04,19,09,18,83.80
2008,04,19,09,19,82.40
2008,04,19,09,20,69.90
2008,04,19,09,21,60.50
2008,04,19,09,22,56.00
2008,04,19,09,23,60.30
2008,04,19,09,24,66.20
2008,04,19,09,25,67.30
2008,04,19,09,26,68.80
2008,04,19,09,27,60.80
2008,04,19,09,28,46.90
2008,04,19,09,29,42.00
2008,04,19,09,30,46.40
2008,04,19,09,31,46.40
2008,04,19,09,32,41.50
2008,04,19,09,33,40.90
2008,04,19,09,34,43.20
2008,04,19,09,35,42.70
2008,04,19,09,36,43.80
2008,04,19,09,37,50.30
2008,04,19,09,38,63.00
2008,04,19,09,39,71.40
2008,04,19,09,40,75.70
2008,04,19,09,41,79.80
2008,04,19,09,42,81.00
2008,04,19,09,43,86.80
2008,04,19,09,44,93.70
2008,04,19,09,45,96.50
2008,04,19,09,46,99.30
2008,04,19,09,47,103.50
2008,04,19,09,48,118.10
2008,04,19,09,49,137.30
2008,04,19,09,50,161.60
2008,04,19,09,51,172.00
2008,04,19,09,52,171.30
2008,04,19,09,53,171.00
2008,04,19,09,54,186.20
2008,04,19,09,55,191.10
2008,04,19,09,56,201.70
2008,04,19,09,57,214.00
2008,04,19,09,58,225.30
2008,04,19,09,59,218.30
2008,04,19,10,00,181.90
2008,04,19,10,01,159.50
2008,04,19,10,02,140.50
2008,04,19,10,03,115.20
2008,04,19,10,04,107.70
2008,04,19,10,05,105.20
2008,04,19,10,06,107.90
2008,04,19,10,07,121.20
2008,04,19,10,08,106.20
2008,04,19,10,09,84.40
2008,04,19,10,10,71.80
2008,04,19,10,11,67.20
2008,04,19,10,12,65.50
2008,04,19,10,13,68.40
2008,04,19,10,14,64.10
2008,04,19,10,15,56.30
2008,04,19,10,16,51.40
2008,04,19,10,17,49.10
2008,04,19,10,18,50.00
2008,04,19,10,19,55.00
2008,04,19,10,20,50.20
2008,04,19,10,21,45.20
2008,04,19,10,22,42.60
2008,04,19,10,23,42.00
2008,04,19,10,24,41.70
2008,04,19,10,25,39.00
2008,04,19,10,26,36.10
2008,04,19,10,27,33.70
2008,04,19,10,28,32.20
2008,04,19,10,29,32.90
2008,04,19,10,30,29.70
2008,04,19,10,31,28.00
2008,04,19,10,32,24.90
2008,04,19,10,33,21.00
2008,04,19,10,34,21.00
2008,04,19,10,35,18.70
2008,04,19,10,36,13.60
2008,04,19,10,37,12.70
2008,04,19,10,38,12.90
2008,04,19,10,39,12.00
2008,04,19,10,40,12.00
2008,04,19,10,41,11.90
2008,04,19,10,42,11.00
2008,04,19,10,43,11.00
2008,04,19,10,44,11.60
2008,04,19,10,45,12.00
2008,04,19,10,46,12.00
2008,04,19,10,47,12.00
2008,04,19,10,48,12.00
2008,04,19,10,49,11.60
2008,04,19,10,50,11.00
2008,04,19,10,51,11.00
2008,04,19,10,52,11.90
2008,04,19,10,53,12.00
2008,04,19,10,54,12.00
2008,04,19,10,55,12.00
2008,04,19,10,56,12.00
2008,04,19,10,57,13.50
2008,04,19,10,58,14.00
2008,04,19,10,59,14.20
2008,04,19,11,00,16.00
2008,04,19,11,01,16.00
2008,04,19,11,02,17.10
2008,04,19,11,03,18.00
2008,04,19,11,04,18.00
2008,04,19,11,05,16.20
2008,04,19,11,06,18.00
2008,04,19,11,07,19.20
2008,04,19,11,08,21.00
2008,04,19,11,09,21.00
2008,04,19,11,10,21.00
2008,04,19,11,11,21.00
2008,04,19,11,12,20.40
2008,04,19,11,13,19.00
2008,04,19,11,14,20.40
2008,04,19,11,15,21.00
2008,04,19,11,16,23.00
2008,04,19,11,17,23.00
2008,04,19,11,18,23.70
2008,04,19,11,19,25.00
2008,04,19,11,20,25.70
2008,04,19,11,21,26.00
2008,04,19,11,22,26.00
2008,04,19,11,23,26.50
2008,04,19,11,24,28.70
2008,04,19,11,25,30.00
2008,04,19,11,26,30.00
2008,04,19,11,27,31.80
2008,04,19,11,28,32.10
2008,04,19,11,29,32.80
2008,04,19,11,30,31.10
2008,04,19,11,31,28.80
2008,04,19,11,32,29.50
2008,04,19,11,33,31.60
2008,04,19,11,34,35.20
2008,04,19,11,35,37.00
2008,04,19,11,36,37.00
2008,04,19,11,37,37.00
2008,04,19,11,38,35.50
2008,04,19,11,39,33.10
2008,04,19,11,40,32.10
2008,04,19,11,41,33.70
2008,04,19,11,42,37.40
2008,04,19,11,43,42.20
2008,04,19,11,44,45.60
2008,04,19,11,45,46.00
2008,04,19,11,46,46.50
2008,04,19,11,47,50.20
2008,04,19,11,48,55.50
2008,04,19,11,49,59.30
2008,04,19,11,50,61.40
2008,04,19,11,51,62.90
2008,04,19,11,52,62.00
2008,04,19,11,53,59.30
2008,04,19,11,54,54.00
2008,04,19,11,55,54.00
2008,04,19,11,56,53.20
2008,04,19,11,57,51.00
2008,04,19,11,58,49.00
2008,04,19,11,59,48.20
2008,04,19,12,00,47.00
2008,04,19,12,01,46.40
2008,04,19,12,02,46.00
2008,04,19,12,03,44.30
2008,04,19,12,04,46.80
2008,04,19,12,05,46.00
2008,04,19,12,06,46.60
2008,04,19,12,07,48.40
2008,04,19,12,08,50.80
2008,04,19,12,09,49.00
2008,04,19,12,10,49.50
2008,04,19,12,11,51.00
2008,04,19,12,12,51.00
2008,04,19,12,13,53.30
2008,04,19,12,14,58.80
2008,04,19,12,15,62.30
2008,04,19,12,16,66.20
2008,04,19,12,17,70.30
2008,04,19,12,18,74.40
2008,04,19,12,19,79.80
2008,04,19,12,20,85.70
2008,04,19,12,21,91.70
2008,04,19,12,22,97.30
2008,04,19,12,23,96.00
2008,04,19,12,24,93.00
2008,04,19,12,25,94.50
2008,04,19,12,26,96.70
2008,04,19,12,27,96.80
2008,04,19,12,28,94.40
2008,04,19,12,29,93.00
2008,04,19,12,30,95.70
2008,04,19,12,31,95.40
2008,04,19,12,32,91.60
2008,04,19,12,33,88.00
2008,04,19,12,34,88.00
2008,04,19,12,35,88.00
2008,04,19,12,36,89.20
2008,04,19,12,37,90.80
2008,04,19,12,38,93.20
2008,04,19,12,39,97.00
2008,04,19,12,40,98.80
2008,04,19,12,41,102.00
2008,04,19,12,42,102.00
2008,04,19,12,43,94.50
2008,04,19,12,44,95.30
2008,04,19,12,45,101.40
2008,04,19,12,46,108.60
2008,04,19,12,47,114.90
2008,04,19,12,48,125.20
2008,04,19,12,49,140.40
2008,04,19,12,50,164.10
2008,04,19,12,51,185.40
2008,04,19,12,52,201.40
2008,04,19,12,53,218.00
2008,04,19,12,54,236.60
2008,04,19,12,55,265.50
2008,04,19,12,56,303.10
2008,04,19,12,57,348.20
2008,04,19,12,58,410.50
2008,04,19,12,59,432.50
2008,04,19,13,00,447.70
2008,04,19,13,01,516.50
2008,04,19,13,02,563.80
2008,04,19,13,03,520.20
2008,04,19,13,04,552.00
2008,04,19,13,05,606.30
2008,04,19,13,06,647.00
2008,04,19,13,07,515.80
2008,04,19,13,08,455.40
2008,04,19,13,09,438.20
2008,04,19,13,10,418.50
2008,04,19,13,11,399.60
2008,04,19,13,12,389.10
2008,04,19,13,13,383.80
2008,04,19,13,14,385.70
2008,04,19,13,15,378.30
2008,04,19,13,16,372.60
2008,04,19,13,17,372.20
2008,04,19,13,18,377.10
2008,04,19,13,19,384.50
2008,04,19,13,20,400.50
2008,04,19,13,21,423.60
2008,04,19,13,22,448.20
2008,04,19,13,23,459.00
2008,04,19,13,24,459.00
2008,04,19,13,25,503.00
2008,04,19,13,26,509.70
2008,04,19,13,27,549.20
2008,04,19,13,28,587.70
2008,04,19,13,29,595.20
2008,04,19,13,30,598.00
2008,04,19,13,31,598.00
2008,04,19,13,32,598.00
2008,04,19,13,33,598.00
2008,04,19,13,34,698.60
2008,04,19,13,35,779.00
2008,04,19,13,36,779.00
2008,04,19,13,37,650.40
2008,04,19,13,38,650.90
2008,04,19,13,39,654.40
2008,04,19,13,40,620.50
2008,04,19,13,41,638.00
2008,04,19,13,42,642.00
2008,04,19,13,43,636.00
2008,04,19,13,44,638.30
2008,04,19,13,45,572.10
2008,04,19,13,46,556.90
2008,04,19,13,47,544.10
2008,04,19,13,48,543.00
2008,04,19,13,49,559.80
2008,04,19,13,50,547.20
2008,04,19,13,51,531.00
2008,04,19,13,52,523.20
2008,04,19,13,53,517.60
2008,04,19,13,54,533.00
2008,04,19,13,55,533.00
2008,04,19,13,56,533.00
2008,04,19,13,57,644.50
2008,04,19,13,58,756.00
2008,04,19,13,59,756.00
2008,04,19,14,00,756.00
2008,04,19,14,01,756.00
2008,04,19,14,02,756.00
2008,04,19,14,03,825.40
2008,04,19,14,04,881.00
2008,04,19,14,05,881.00
2008,04,19,14,06,865.60
2008,04,19,14,07,751.90
2008,04,19,14,08,784.00
2008,04,19,14,09,784.00
2008,04,19,14,10,784.00
2008,04,19,14,11,784.00
2008,04,19,14,12,1248.80
2008,04,19,14,13,1223.70
2008,04,19,14,14,1174.00
2008,04,19,14,15,1174.00
2008,04,19,14,16,1174.00
2008,04,19,14,17,714.40
2008,04,19,14,18,657.00
2008,04,19,14,19,657.00
2008,04,19,14,20,718.30
2008,04,19,14,21,795.00
2008,04,19,14,22,795.00
2008,04,19,14,23,1001.40
2008,04,19,14,24,1037.00
2008,04,19,14,25,1037.00
2008,04,19,14,26,1037.00
2008,04,19,14,27,1037.00
2008,04,19,14,28,1037.00
2008,04,19,14,29,1037.00
2008,04,19,14,30,935.20
2008,04,19,14,31,396.20
2008,04,19,14,32,413.50
2008,04,19,14,33,438.00
2008,04,19,14,34,461.00
2008,04,19,14,35,476.00
2008,04,19,14,36,470.20
2008,04,19,14,37,443.60
2008,04,19,14,38,458.80
2008,04,19,14,39,499.80
2008,04,19,14,40,590.70
2008,04,19,14,41,541.30
2008,04,19,14,42,447.30
2008,04,19,14,43,423.50
2008,04,19,14,44,396.50
2008,04,19,14,45,406.20
2008,04,19,14,46,472.20
2008,04,19,14,47,492.00
2008,04,19,14,48,561.60
2008,04,19,14,49,788.00
2008,04,19,14,50,788.00
2008,04,19,14,51,788.00
2008,04,19,14,52,788.00
2008,04,19,14,53,772.30
2008,04,19,14,54,647.00
2008,04,19,14,55,647.00
2008,04,19,14,56,647.00
2008,04,19,14,57,647.00
2008,04,19,14,58,647.00
2008,04,19,14,59,643.70
2008,04,19,15,00,612.00
2008,04,19,15,01,612.00
2008,04,19,15,02,687.30
2008,04,19,15,03,742.10
2008,04,19,15,04,720.20
2008,04,19,15,05,717.80
2008,04,19,15,06,724.00
2008,04,19,15,07,729.50
2008,04,19,15,08,732.40
2008,04,19,15,09,734.10
2008,04,19,15,10,700.10
2008,04,19,15,11,633.00
2008,04,19,15,12,648.00
2008,04,19,15,13,680.00
2008,04,19,15,14,639.00
2008,04,19,15,15,584.80
2008,04,19,15,16,568.50
2008,04,19,15,17,546.20
2008,04,19,15,18,511.50
2008,04,19,15,19,483.90
2008,04,19,15,20,513.40
2008,04,19,15,21,520.70
2008,04,19,15,22,510.00
2008,04,19,15,23,432.40
2008,04,19,15,24,447.40
2008,04,19,15,25,466.60
2008,04,19,15,26,495.50
2008,04,19,15,27,474.00
2008,04,19,15,28,446.60
2008,04,19,15,29,467.20
2008,04,19,15,30,489.80
2008,04,19,15,31,444.00
2008,04,19,15,32,356.60
2008,04,19,15,33,297.20
2008,04,19,15,34,303.50
2008,04,19,15,35,335.20
2008,04,19,15,36,352.00
2008,04,19,15,37,352.00
2008,04,19,15,38,290.60
2008,04,19,15,39,253.80
2008,04,19,15,40,282.80
2008,04,19,15,41,323.40
2008,04,19,15,42,385.50
2008,04,19,15,43,369.80
2008,04,19,15,44,330.80
2008,04,19,15,45,332.00
2008,04,19,15,46,362.10
2008,04,19,15,47,407.20
2008,04,19,15,48,410.50
2008,04,19,15,49,386.60
2008,04,19,15,50,359.90
2008,04,19,15,51,348.00
2008,04,19,15,52,340.70
2008,04,19,15,53,339.70
2008,04,19,15,54,338.80
2008,04,19,15,55,337.30
2008,04,19,15,56,344.70
2008,04,19,15,57,370.70
2008,04,19,15,58,369.90
2008,04,19,15,59,385.20
2008,04,19,16,00,395.60
2008,04,19,16,01,432.70
2008,04,19,16,02,398.00
2008,04,19,16,03,375.50
2008,04,19,16,04,362.80
2008,04,19,16,05,344.10
2008,04,19,16,06,336.90
2008,04,19,16,07,340.90
2008,04,19,16,08,349.20
2008,04,19,16,09,357.90
2008,04,19,16,10,372.60
2008,04,19,16,11,371.00
2008,04,19,16,12,375.50
2008,04,19,16,13,384.50
2008,04,19,16,14,393.20
2008,04,19,16,15,410.70
2008,04,19,16,16,433.10
2008,04,19,16,17,443.90
2008,04,19,16,18,391.10
2008,04,19,16,19,378.60
2008,04,19,16,20,367.20
2008,04,19,16,21,364.20
2008,04,19,16,22,356.60
2008,04,19,16,23,326.20
2008,04,19,16,24,320.20
2008,04,19,16,25,316.60
2008,04,19,16,26,328.60
2008,04,19,16,27,368.90
2008,04,19,16,28,447.20
2008,04,19,16,29,475.50
2008,04,19,16,30,494.00
2008,04,19,16,31,316.10
2008,04,19,16,32,291.60
2008,04,19,16,33,320.20
2008,04,19,16,34,306.00
2008,04,19,16,35,306.00
2008,04,19,16,36,370.70
2008,04,19,16,37,390.60
2008,04,19,16,38,366.00
2008,04,19,16,39,343.30
2008,04,19,16,40,345.40
2008,04,19,16,41,351.50
2008,04,19,16,42,357.00
2008,04,19,16,43,353.70
2008,04,19,16,44,341.00
2008,04,19,16,45,338.60
2008,04,19,16,46,339.60
2008,04,19,16,47,375.10
2008,04,19,16,48,434.20
2008,04,19,16,49,452.00
2008,04,19,16,50,357.40
2008,04,19,16,51,336.90
2008,04,19,16,52,353.00
2008,04,19,16,53,353.00
2008,04,19,16,54,336.80
2008,04,19,16,55,383.20
2008,04,19,16,56,394.40
2008,04,19,16,57,352.90
2008,04,19,16,58,241.10
2008,04,19,16,59,231.50
2008,04,19,17,00,227.40
2008,04,19,17,01,227.00
2008,04,19,17,02,222.40
2008,04,19,17,03,218.00
2008,04,19,17,04,216.00
2008,04,19,17,05,213.00
2008,04,19,17,06,216.20
2008,04,19,17,07,216.10
2008,04,19,17,08,220.40
2008,04,19,17,09,223.00
2008,04,19,17,10,223.00
2008,04,19,17,11,221.00
2008,04,19,17,12,218.40
2008,04,19,17,13,214.20
2008,04,19,17,14,212.60
2008,04,19,17,15,209.80
2008,04,19,17,16,205.60
2008,04,19,17,17,202.70
2008,04,19,17,18,199.90
2008,04,19,17,19,197.00
2008,04,19,17,20,192.90
2008,04,19,17,21,191.40